Wind_Speed
6 6 5 5 6 6 5 3 2 2 3 3 3 4 4 4 4 5 5 5 6 6 7 8 8 9 9 10 11 12 13 13 14 15 16 16 16 17 17 18 19 19 20 20 21 21 20 20 19
7 6 6 6 7 7 5 4 3 2 2 1 3 4 4 4 4 4 5 6 7 7 7 8 9 9 10 11 12 13 14 15 16 16 16 17 17 18 19 19 20 20 21 21 21 21 21 21 21
9 7 7 8 8 8 6 5 3 3 2 2 2 3 4 4 4 5 6 6 7 6 7 8 9 10 11 12 12 13 14 15 16 17 17 18 19 20 20 20 20 21 21 21 22 22 22 22 22
9 8 8 9 9 8 6 5 3 3 2 2 3 4 4 4 4 4 5 6 6 7 7 8 9 10 11 13 13 14 15 15 16 17 18 19 19 20 21 21 21 22 22 22 23 22 22 22 22
11 10 10 10 10 9 7 5 3 2 3 2 3 4 4 4 4 4 5 5 6 7 8 9 10 10 11 12 13 14 14 15 16 16 18 18 19 20 21 21 22 22 23 23 23 23 23 23 22
13 12 11 11 11 10 7 4 3 3 2 3 4 5 5 4 4 4 5 6 6 7 8 8 9 10 11 11 12 12 13 14 15 16 16 17 18 19 20 21 22 22 22 24 24 24 24 24 23
15 13 13 12 12 11 7 5 5 4 3 3 4 5 5 6 5 5 5 6 6 6 7 8 8 9 10 10 11 12 12 13 14 15 16 16 16 18 19 20 21 22 22 22 23 24 24 24 24
16 15 15 14 13 11 7 6 6 4 4 5 5 6 6 5 6 6 5 6 6 6 6 6 7 8 9 10 11 12 13 13 13 14 15 16 16 17 18 19 20 20 21 22 23 24 25 25 25
18 17 16 15 13 11 9 7 6 6 5 6 6 6 7 6 5 5 5 4 4 5 6 6 7 8 9 11 12 13 13 13 13 14 14 15 16 16 17 18 19 19 20 20 22 23 24 25 25
19 17 16 14 13 12 10 8 7 7 6 6 6 6 7 6 5 4 4 3 3 4 4 5 6 8 9 11 12 13 14 15 15 14 14 15 15 16 16 17 17 19 19 20 20 21 22 24 24
19 18 17 15 14 12 10 8 7 7 7 6 6 6 6 5 4 3 2 2 2 3 4 5 6 8 10 11 12 13 14 15 15 15 15 15 16 16 16 17 17 18 18 19 20 21 21 22 23
20 18 16 14 13 11 9 8 7 7 7 6 6 5 5 3 3 3 2 1 2 2 4 5 7 9 11 12 13 14 14 15 15 16 16 16 17 17 16 17 17 17 18 19 20 20 21 22 23
20 17 14 14 12 10 9 8 7 7 7 6 6 4 3 2 3 3 1 1 1 3 5 6 8 10 12 13 14 15 15 15 15 16 16 17 17 17 17 17 16 17 18 18 19 19 20 21 23
18 16 14 13 12 10 8 8 7 7 7 6 5 4 3 3 2 1 0 1 2 4 5 7 9 11 12 13 14 15 16 16 17 17 17 18 18 17 17 17 16 16 17 17 18 19 19 20 22
18 17 15 13 12 10 9 8 7 7 7 6 6 5 3 3 2 1 1 1 3 4 6 8 10 12 13 14 15 16 17 18 18 18 18 18 18 17 17 16 16 16 16 17 17 17 18 19 20
17 16 14 12 10 9 8 8 7 7 7 7 6 5 3 3 2 1 1 1 3 4 6 8 10 12 13 14 15 17 18 18 18 19 18 18 18 17 17 16 16 15 15 15 16 16 17 18 19
16 14 12 11 11 10 9 7 8 7 7 7 6 5 4 3 2 2 2 1 3 5 6 8 10 12 13 15 16 17 18 18 19 19 19 18 18 17 17 16 15 14 14 14 14 15 16 17 18
15 13 11 11 10 9 8 7 7 7 6 6 6 4 4 3 2 2 2 1 3 5 7 8 10 12 13 15 16 17 18 19 19 19 19 19 18 17 17 16 15 13 12 12 12 13 13 15 17
13 12 11 9 9 8 7 6 6 6 6 6 6 5 4 4 3 3 1 2 3 5 7 8 10 12 13 15 16 17 18 19 19 19 19 19 18 18 17 16 15 13 11 10 10 11 12 13 15
12 10 9 8 8 7 7 6 5 5 5 5 6 6 5 4 4 3 2 2 3 5 6 8 10 12 13 14 16 17 18 18 19 19 19 19 18 17 17 16 14 12 10 9 9 9 10 11 13
10 9 7 6 6 6 6 5 4 4 5 5 6 6 6 5 4 3 2 2 4 5 6 8 9 11 13 14 16 17 18 18 19 19 19 19 18 17 17 16 14 12 10 9 8 8 8 9 11
8 7 6 5 5 4 4 4 4 4 5 5 5 5 5 5 4 3 3 3 4 5 6 7 9 11 12 14 15 16 17 18 19 19 19 19 18 17 16 16 14 13 11 9 8 7 7 8 9
7 7 6 5 4 4 4 4 3 4 3 3 4 4 4 5 5 4 3 4 5 6 6 7 9 10 12 13 15 16 17 18 19 19 19 19 18 17 16 15 14 13 11 9 7 6 6 7 8
7 6 6 5 5 4 3 4 3 3 3 2 3 4 4 5 4 4 4 4 5 6 7 8 9 10 11 13 15 16 16 17 18 19 19 19 19 17 16 15 14 13 11 9 7 5 5 6 7
7 6 6 5 5 4 3 3 3 2 2 2 3 4 4 4 4 4 5 5 6 7 7 8 9 9 11 13 14 15 16 17 18 18 19 19 19 18 16 15 14 13 11 9 6 4 4 4 5
7 7 6 6 5 4 3 2 2 1 1 1 2 3 3 3 4 5 6 6 7 7 7 8 8 9 10 12 13 14 15 16 17 18 18 19 19 18 17 16 15 13 11 9 6 4 3 3 4
7 6 5 5 4 3 3 2 2 1 1 1 2 3 3 4 5 6 7 7 8 8 8 8 8 9 10 11 13 14 14 15 16 17 18 18 18 18 17 16 15 13 11 9 7 5 3 2 2
6 4 4 4 4 3 2 1 2 2 3 3 3 4 4 5 5 6 7 8 8 8 8 8 9 9 10 11 12 13 13 14 15 16 17 18 18 17 17 16 15 14 12 10 8 6 4 2 1
4 3 3 3 3 3 3 3 4 4 4 4 4 5 6 6 7 7 8 8 8 9 8 9 9 10 10 11 11 12 13 13 14 15 16 17 17 17 17 16 15 14 12 10 8 7 5 3 2
3 2 2 3 4 5 5 4 6 6 5 5 5 6 6 7 8 9 9 9 9 9 9 9 10 10 10 11 11 12 12 13 13 14 15 16 16 16 16 16 15 14 12 10 9 7 6 4 3
Wind_Direction
291 299 312 316 320 319 308 290 249 235 264 244 246 264 271 270 277 278 283 287 291 292 297 302 304 301 298 294 291 285 279 277 277 276 271 269 269 266 263 261 260 259 258 256 256 257 257 258 259
281 286 292 293 298 310 309 298 299 263 252 231 234 255 275 281 285 286 287 288 290 293 299 302 304 304 303 299 295 291 287 281 278 276 272 268 267 266 264 262 262 260 259 258 256 256 257 257 257
275 274 276 283 288 292 290 289 293 266 208 223 249 262 275 285 291 290 289 291 295 297 300 304 305 306 305 303 300 296 292 287 283 278 273 270 267 266 265 262 262 259 258 257 256 256 256 256 255
268 271 271 277 280 284 285 278 297 263 221 242 258 272 272 283 285 285 289 300 301 302 304 306 305 305 304 303 302 299 295 290 286 282 277 274 270 267 266 265 264 263 260 258 256 255 256 254 254
259 263 268 274 277 279 276 269 284 273 257 259 260 278 278 281 282 284 293 303 305 306 309 310 309 308 308 309 307 303 298 294 289 286 281 278 274 270 267 266 264 263 262 260 258 255 255 253 253
250 255 262 268 274 274 277 274 294 296 276 274 272 278 282 284 285 289 294 299 304 309 313 312 313 315 317 317 316 311 306 301 295 290 287 284 280 276 273 269 264 264 262 259 256 255 256 254 252
248 251 257 264 267 271 275 281 283 305 288 278 271 277 280 280 280 286 294 301 307 312 317 319 323 324 325 327 325 321 316 310 304 299 293 289 286 281 277 274 268 264 262 260 256 253 254 252 251
245 248 253 259 265 266 260 266 273 293 295 280 275 275 278 276 279 287 295 301 308 319 327 331 334 335 336 335 333 329 325 319 313 306 301 296 290 286 282 277 271 267 264 260 258 254 254 252 250
243 245 248 257 260 259 258 264 272 281 283 278 277 276 276 276 282 288 295 298 316 331 336 340 346 346 343 340 337 333 330 326 320 314 308 302 297 291 287 281 274 268 264 262 259 256 253 252 250
241 242 243 250 255 257 258 262 269 271 273 277 280 281 278 277 274 280 296 307 327 335 345 353 350 346 343 339 337 334 331 328 326 323 316 310 304 298 292 286 279 271 265 261 259 258 253 250 248
239 239 242 248 250 247 250 257 265 268 264 267 272 276 274 268 263 264 272 286 320 348 358 356 348 345 343 341 339 336 334 331 329 326 322 316 310 304 297 290 283 276 269 262 259 257 254 249 246
239 240 240 242 240 239 248 258 265 266 265 258 260 272 274 257 250 252 251 296 340 355 356 355 351 346 345 343 341 339 337 335 331 326 323 320 315 309 302 294 285 278 271 265 260 257 255 251 247
234 237 230 230 236 237 246 256 264 262 256 252 249 261 252 237 236 232 226 333 356 356 355 356 353 348 346 344 343 342 340 339 334 329 326 322 318 312 305 299 290 281 273 267 261 256 254 250 246
228 232 230 228 229 229 240 250 250 253 246 242 240 249 252 238 218 205 113 33 355 355 355 354 353 350 347 345 345 345 343 339 335 332 328 325 322 317 310 303 294 284 276 269 263 258 254 250 246
224 230 231 231 231 232 237 241 244 245 242 239 237 242 250 239 216 190 160 23 4 359 355 352 353 352 350 348 347 345 344 341 338 335 332 329 326 323 317 309 300 290 281 272 264 259 254 249 245
223 227 229 223 221 229 232 236 239 239 236 235 234 238 238 222 208 200 196 338 354 354 351 351 354 353 352 351 349 347 345 343 341 338 336 333 330 327 323 316 307 296 286 275 266 260 254 248 244
223 227 230 225 226 233 236 234 237 235 226 227 227 227 223 208 196 215 224 300 346 348 350 351 353 353 353 352 349 347 346 345 343 341 339 336 334 332 328 323 314 304 290 278 269 262 257 247 240
219 222 223 224 221 223 232 231 232 232 228 224 221 215 213 203 195 206 229 314 348 350 352 353 352 352 354 352 350 348 347 347 345 343 341 339 336 334 332 328 320 311 298 284 273 264 258 247 238
212 213 216 210 209 217 224 226 222 218 221 220 210 208 212 209 204 203 230 317 340 345 350 350 347 348 350 350 351 350 349 349 347 346 344 342 340 337 335 332 326 318 305 291 280 267 257 247 239
199 201 200 197 201 211 211 210 204 205 210 207 200 198 205 211 215 212 248 307 330 338 343 342 342 344 346 348 350 351 351 350 349 349 348 346 344 343 341 338 334 325 313 300 286 274 259 249 240
182 193 196 193 196 202 200 202 211 213 202 192 194 193 200 209 216 229 261 304 321 331 334 335 336 340 345 347 350 351 352 353 352 351 351 349 348 346 345 343 340 337 325 309 292 278 263 250 239
163 170 178 190 197 197 190 192 190 185 184 186 195 192 200 208 220 239 269 299 316 325 325 328 334 338 342 345 348 351 353 354 355 354 353 353 352 351 349 348 344 340 333 321 305 284 264 247 237
152 155 154 160 175 189 195 198 180 180 179 195 199 197 205 211 222 235 266 294 311 320 321 326 332 337 342 346 350 351 353 355 356 357 358 357 355 354 352 351 348 343 337 328 315 290 266 247 237
157 156 147 149 161 167 166 167 150 158 169 181 198 211 217 215 225 243 268 288 303 312 318 323 328 335 341 346 349 351 353 356 358 359 0 0 359 356 354 353 351 349 345 339 328 300 269 247 236
149 153 151 155 162 161 148 132 127 145 169 179 204 218 223 225 237 257 272 284 295 304 311 316 323 332 339 344 347 349 352 356 358 360 1 2 1 360 358 358 355 353 352 348 339 316 273 245 232
145 150 153 158 159 155 152 117 101 108 140 191 237 231 243 249 253 265 272 278 286 293 301 308 316 326 334 340 345 348 351 355 358 360 1 3 4 4 4 2 1 359 358 356 349 337 295 248 237
142 153 164 167 162 161 155 111 71 47 301 285 276 269 265 263 264 269 271 275 281 286 294 302 310 320 329 336 341 345 349 353 357 359 1 4 6 6 7 6 6 4 3 3 1 352 330 281 243
145 157 167 189 188 191 209 260 308 304 294 285 282 277 272 271 274 276 277 278 280 284 291 298 305 314 323 331 337 343 346 350 355 358 1 4 6 7 8 8 8 9 8 7 6 4 356 346 300
149 163 178 198 216 234 253 272 292 299 306 298 279 268 266 271 278 285 285 283 282 284 289 294 300 307 315 324 332 338 343 347 352 355 359 2 5 8 9 10 10 11 12 13 12 8 3 356 349
151 184 229 242 255 267 277 281 285 296 304 302 288 279 274 271 271 276 280 282 282 284 285 289 294 301 308 317 325 332 338 344 348 352 355 359 3 6 8 9 11 12 12 11 12 10 6 359 349
Height
5876 5875 5875 5874 5874 5873 5871 5871 5870 5870 5870 5870 5870 5870 5870 5870 5871 5873 5871 5869 5868 5868 5867 5867 5866 5866 5865 5865 5865 5864 5864 5864 5863 5863 5862 5862 5861 5861 5861 5861 5861 5861 5862 5862 5862 5863 5863 5863 5864
5875 5874 5874 5873 5872 5872 5871 5870 5869 5869 5869 5869 5869 5869 5869 5869 5869 5869 5868 5867 5867 5867 5866 5865 5865 5864 5863 5863 5862 5862 5861 5861 5860 5859 5859 5858 5858 5858 5857 5857 5857 5857 5858 5858 5859 5859 5860 5860 5861
5873 5873 5873 5872 5871 5870 5870 5869 5868 5868 5868 5868 5868 5868 5868 5868 5868 5867 5867 5866 5866 5865 5864 5864 5863 5862 5861 5861 5860 5859 5858 5858 5857 5856 5855 5855 5854 5854 5854 5854 5853 5853 5854 5854 5855 5855 5856 5856 5857
5872 5872 5871 5871 5869 5868 5868 5867 5867 5866 5867 5867 5867 5867 5867 5867 5867 5866 5865 5865 5864 5864 5863 5862 5861 5860 5859 5858 5857 5856 5855 5854 5853 5852 5852 5851 5851 5850 5850 5850 5849 5849 5850 5850 5851 5851 5852 5852 5853
5869 5870 5869 5868 5867 5867 5866 5866 5865 5865 5866 5865 5866 5865 5865 5866 5865 5864 5864 5863 5863 5862 5861 5860 5859 5858 5857 5856 5855 5853 5852 5851 5850 5848 5848 5847 5846 5846 5845 5845 5845 5845 5845 5846 5846 5847 5847 5848 5849
5867 5867 5867 5866 5865 5865 5864 5864 5864 5865 5865 5865 5864 5864 5864 5864 5863 5863 5863 5862 5861 5861 5860 5859 5857 5856 5855 5854 5852 5851 5849 5848 5846 5845 5844 5843 5842 5841 5841 5841 5840 5840 5841 5841 5842 5842 5843 5844 5845
5864 5864 5864 5864 5863 5863 5863 5863 5863 5863 5863 5863 5863 5863 5862 5862 5862 5861 5861 5860 5859 5859 5858 5857 5856 5854 5853 5852 5850 5849 5847 5845 5843 5842 5840 5839 5838 5837 5837 5836 5836 5836 5836 5836 5837 5838 5838 5839 5840
5860 5862 5862 5862 5862 5862 5861 5861 5862 5862 5862 5862 5862 5862 5861 5861 5861 5860 5859 5858 5858 5857 5856 5855 5854 5853 5851 5850 5848 5846 5845 5843 5841 5839 5837 5836 5835 5834 5833 5832 5831 5831 5831 5831 5832 5832 5833 5834 5836
5857 5859 5859 5859 5859 5860 5859 5859 5860 5860 5860 5860 5860 5860 5860 5859 5859 5858 5858 5857 5856 5855 5855 5854 5853 5851 5850 5848 5846 5844 5842 5840 5838 5836 5834 5833 5831 5830 5828 5827 5827 5826 5826 5826 5827 5827 5828 5829 5831
5853 5855 5856 5856 5857 5857 5857 5858 5858 5858 5858 5858 5858 5858 5858 5857 5857 5857 5856 5856 5855 5855 5854 5853 5852 5850 5849 5847 5845 5842 5840 5837 5835 5833 5831 5829 5827 5826 5824 5823 5822 5821 5821 5821 5822 5822 5823 5824 5825
5849 5851 5852 5853 5853 5854 5855 5855 5856 5856 5856 5856 5856 5856 5855 5855 5855 5855 5855 5855 5854 5854 5853 5852 5851 5849 5847 5845 5843 5840 5838 5835 5832 5830 5828 5826 5824 5822 5820 5819 5817 5817 5816 5816 5817 5817 5818 5819 5820
5845 5847 5848 5850 5850 5850 5852 5853 5854 5854 5854 5855 5855 5854 5854 5854 5854 5854 5854 5854 5853 5853 5852 5850 5849 5847 5845 5843 5841 5838 5835 5832 5830 5827 5825 5823 5820 5818 5816 5814 5813 5812 5811 5811 5811 5812 5813 5814 5815
5841 5843 5844 5846 5846 5847 5849 5850 5851 5852 5852 5852 5852 5853 5853 5852 5853 5853 5853 5853 5852 5851 5850 5849 5847 5846 5843 5841 5839 5836 5833 5830 5827 5825 5822 5819 5816 5814 5811 5810 5808 5807 5806 5806 5806 5807 5808 5809 5810
5838 5840 5841 5842 5843 5844 5846 5848 5849 5850 5850 5850 5851 5851 5851 5851 5851 5851 5851 5851 5851 5850 5849 5848 5846 5844 5842 5839 5836 5834 5831 5828 5825 5821 5819 5816 5813 5810 5807 5805 5803 5802 5801 5801 5801 5802 5802 5803 5805
5835 5837 5839 5840 5842 5842 5844 5846 5846 5847 5847 5848 5849 5849 5850 5850 5850 5850 5850 5850 5850 5849 5848 5846 5845 5842 5840 5837 5834 5831 5828 5825 5822 5819 5815 5812 5809 5806 5803 5801 5799 5797 5796 5796 5796 5796 5797 5798 5799
5832 5834 5836 5838 5839 5841 5844 5844 5845 5845 5846 5846 5847 5848 5848 5848 5849 5849 5849 5849 5848 5848 5847 5845 5843 5841 5838 5836 5833 5829 5826 5823 5819 5816 5812 5809 5806 5802 5799 5796 5794 5792 5791 5791 5791 5791 5792 5793 5794
5829 5832 5833 5836 5838 5839 5841 5842 5843 5843 5843 5844 5845 5846 5847 5847 5847 5848 5848 5848 5847 5846 5845 5843 5842 5840 5837 5834 5831 5828 5824 5821 5817 5813 5810 5806 5803 5799 5796 5793 5790 5788 5787 5786 5786 5786 5787 5788 5789
5827 5830 5832 5834 5836 5837 5839 5840 5841 5841 5842 5842 5843 5844 5845 5846 5846 5846 5847 5846 5846 5845 5844 5842 5840 5838 5836 5833 5830 5826 5823 5819 5815 5811 5807 5803 5800 5796 5793 5790 5787 5785 5783 5782 5782 5782 5782 5783 5784
5826 5828 5830 5833 5834 5836 5837 5838 5839 5839 5840 5841 5842 5843 5844 5844 5845 5845 5845 5845 5844 5844 5842 5841 5840 5837 5835 5832 5829 5825 5821 5817 5813 5809 5805 5801 5797 5794 5790 5787 5784 5782 5780 5779 5778 5778 5779 5779 5780
5824 5827 5829 5832 5833 5835 5836 5837 5837 5837 5838 5839 5841 5842 5843 5843 5844 5844 5844 5844 5843 5842 5841 5840 5839 5836 5834 5831 5828 5824 5820 5816 5812 5808 5803 5799 5795 5791 5788 5785 5782 5779 5777 5776 5775 5775 5775 5776 5777
5824 5827 5829 5830 5832 5833 5834 5836 5836 5836 5837 5838 5839 5840 5841 5842 5843 5843 5843 5842 5842 5841 5840 5839 5837 5835 5833 5830 5826 5823 5819 5815 5811 5806 5802 5798 5794 5790 5786 5783 5780 5777 5775 5774 5773 5772 5772 5772 5773
5823 5826 5827 5829 5831 5832 5834 5835 5835 5835 5836 5837 5838 5839 5840 5841 5841 5841 5841 5841 5841 5840 5839 5838 5836 5834 5832 5829 5825 5822 5818 5814 5810 5805 5801 5797 5793 5789 5785 5782 5778 5776 5774 5772 5770 5770 5769 5770 5771
5823 5825 5827 5828 5830 5832 5833 5834 5835 5834 5835 5836 5837 5838 5839 5840 5840 5840 5840 5840 5839 5839 5838 5837 5835 5833 5831 5827 5824 5821 5817 5813 5809 5804 5800 5796 5792 5788 5784 5781 5777 5775 5772 5770 5768 5768 5767 5768 5768
5824 5826 5827 5828 5830 5831 5832 5833 5834 5833 5834 5835 5836 5837 5838 5838 5838 5838 5838 5838 5838 5837 5836 5835 5833 5832 5829 5826 5823 5820 5816 5812 5808 5804 5800 5796 5791 5787 5783 5780 5777 5773 5771 5768 5767 5766 5766 5766 5766
5825 5827 5828 5829 5830 5831 5831 5831 5833 5833 5833 5834 5834 5835 5836 5836 5837 5837 5837 5836 5836 5835 5834 5833 5832 5830 5828 5825 5822 5819 5815 5811 5807 5803 5799 5795 5791 5787 5783 5779 5776 5773 5770 5768 5766 5765 5765 5765 5765
5825 5827 5829 5830 5830 5830 5831 5830 5832 5832 5832 5832 5833 5834 5834 5834 5835 5835 5835 5835 5834 5834 5833 5832 5830 5829 5826 5824 5821 5818 5814 5811 5807 5803 5799 5795 5791 5787 5783 5779 5776 5772 5770 5767 5766 5764 5764 5764 5764
5826 5827 5829 5829 5829 5830 5830 5830 5831 5831 5831 5831 5832 5832 5832 5833 5833 5833 5833 5833 5832 5832 5831 5830 5828 5827 5825 5823 5820 5817 5814 5810 5807 5803 5799 5795 5791 5787 5783 5779 5776 5773 5770 5768 5766 5764 5764 5763 5763
5826 5827 5828 5829 5829 5829 5829 5829 5830 5830 5830 5830 5831 5831 5831 5831 5831 5831 5831 5830 5830 5829 5829 5827 5826 5825 5823 5821 5819 5816 5813 5809 5806 5803 5799 5795 5791 5787 5784 5780 5776 5773 5770 5768 5766 5764 5764 5763 5763
5826 5827 5827 5828 5828 5829 5828 5831 5829 5829 5829 5829 5829 5829 5829 5829 5829 5829 5828 5828 5827 5827 5826 5825 5824 5823 5821 5819 5817 5814 5812 5809 5806 5802 5799 5795 5792 5788 5784 5781 5777 5774 5771 5768 5767 5765 5764 5763 5763
5825 5826 5827 5828 5828 5827 5827 5831 5828 5827 5827 5827 5827 5826 5826 5827 5826 5826 5826 5825 5825 5824 5823 5823 5822 5821 5819 5817 5815 5813 5810 5808 5805 5802 5799 5796 5792 5789 5785 5782 5778 5775 5772 5769 5767 5766 5764 5764 5763